Regional Weather Roundup
Issued by NWS

Home | Current Version | Previous Version | Text Only | Print | Product List | Glossary On
Versions: 1 2 3 4 5 6 7 8 9 10 11 12 13 14 15 16 17 18 19 20 21 22 23 24 25 26
000
ASUS42 KTBW 250517
RWRFL
FLORIDA REGIONAL WEATHER ROUNDUP
NATIONAL WEATHER SERVICE TAMPA BAY RUSKIN FL
100 AM EDT SUN SEP 25 2016

NOTE: "FAIR" INDICATES FEW OR NO CLOUDS BELOW 12,000 FEET WITH NO
SIGNIFICANT WEATHER AND/OR OBSTRUCTIONS TO VISIBILITY.

FLZ001>010-012>015-112-114-115-250600-
PANHANDLE FLORIDA

CITY           SKY/WX    TMP DP  RH WIND       PRES   REMARKS
PENSACOLA      CLEAR     79  72  79 CALM      29.99F
PENSACOLA NAS  CLEAR     77  74  90 E5        29.99S
MILTON NAS     CLEAR     72  71  97 CALM      30.00S
CRESTVIEW      CLEAR     70  67  90 CALM      30.02F
DUKE FIELD     FAIR      72  67  84 W5        30.00S
VALPARAISO     PTCLDY    74  68  82 W5        30.00S
TRI COUNTY     FAIR      74  71  91 CALM      30.01F
PANAMA CITY    NOT AVBL
TYNDALL AFB    CLEAR     76  74  96 CALM      30.00F
APALACHICOLA   CLEAR     76  76 100 CALM      30.00F

STATION/POSITION SKY/WX   TEMP    WIND        PRES    WAVE   SWELL
                          AIR SEA DIR/SP/G            HT/PER HT/PER
                          (F)     (DEG/KT/KT) (MB)    (FT/S) (FT/S)
30.1N   87.6W              85 86  260/ 12/ 16 1015.7F   1
29.2N   88.2W              84 86  230/  6/  6 1016.0F
28.8N   86.0W              83 85              1016.6F   1
PANAMA CITY BEAC           81 86   50/  5/  7 1016.4F
TOWER C                    83     250/  6/  7 1016.5F
28.5N   84.5W              83 85   CALM  /  2 1016.1F   1

$$
FLZ011-016>038-118-127-128-134-139-239-250600-
NORTH FLORIDA

CITY           SKY/WX    TMP DP  RH WIND       PRES   REMARKS
MARIANNA       CLEAR     75  74  96 CALM      30.00F
TALLAHASSEE    CLEAR     75  73  93 CALM      30.01F
PERRY          PTCLDY    74  71  91 CALM      30.03R
CROSS CITY     CLEAR     77  73  88 SE3       30.01S
LAKE CITY      FAIR      72  72 100 CALM      30.03F
GAINESVILLE    CLOUDY    74  72  93 NE3       30.03S
WILLISTON      CLEAR     77  75  94 CALM      30.02S
PALATKA        FAIR      72  72 100 CALM      30.02F
MAYPORT NAS    CLEAR     77  73  87 CALM      30.02F
JACKSONVILLE   PTCLDY    72  72 100 CALM      30.02S
JAX NAS        PTCLDY    82  74  76 S5        30.03S
FERNANDINA BEA FAIR      77  73  88 CALM      30.01S
ST AUGUSTINE   CLEAR     75  72  90 CALM      30.03S
PALM COAST     FAIR     N/A N/A N/A MISG      30.02F

STATION/POSITION SKY/WX   TEMP    WIND        PRES    WAVE   SWELL
                          AIR SEA DIR/SP/G            HT/PER HT/PER
                          (F)     (DEG/KT/KT) (MB)    (FT/S) (FT/S)
SHELL POINT                81     330/  2/  2 1014.9
KEATON BEACH               77      50/  3/  4 1016.0R
CEDAR KEY                  82     100/ 11/ 12 1016.4F
FERNANDINA                 78 85  130/  1/  2 1016.8F
30.7N   81.3W                 82                N/A     3/11   2/11
MAYPORT                    80 85   CALM  /  1 1017.1F
31.4N   80.9W              80 82   90/  4/  6 1016.5F   3/11   3/11
ST AUGUSTINE               77 84  270/  3/  3 1017.2F

$$
FLZ040-043>046-052-053-057-058-063-144-250600-
INTERIOR CENTRAL FLORIDA

CITY           SKY/WX    TMP DP  RH WIND       PRES   REMARKS
OCALA          CLEAR     75  70  83 CALM      30.02S
THE VILLAGES     N/A     79  79 100 CALM      29.92F
LEESBURG       CLEAR     79  74  84 S5        30.02F
SANFORD        PTCLDY    78  74  87 CALM      30.01F
ORLANDO EXEC   PTCLDY    79  75  87 S3        30.01F
ORLANDO INTL   MOCLDY    77  73  87 S3        30.01F
KISSIMMEE      PTCLDY    77  74  90 SW3       30.03F
WINTER HAVEN   CLEAR     76  73  91 CALM      30.03F
BARTOW         FAIR      73 N/A N/A S3        30.02F
OKEECHOBEE     CLEAR     73  72  94 CALM      30.03F

$$
FLZ041-047-054-059-064-141-147-250600-
EAST CENTRAL FLORIDA

CITY           SKY/WX    TMP DP  RH WIND       PRES   REMARKS
DAYTONA BEACH  MOCLDY    75  73  93 CALM      30.02F
DELAND         CLEAR     73  72  94 CALM      30.01F
JFK SPACE CTR  CLEAR     74  72  94 CALM      30.00F
CAPE CANAVERAL CLEAR     76  73  90 SE2       30.00F
PATRICK AFB    PTCLDY    81  75  81 SE5       30.01F
MELBOURNE      CLOUDY    78  78 100 S10       30.01F THUNDER
VERO BEACH     TSTM      77  74  90 S3        30.03R
FT PIERCE      PTCLDY    76  76 100 CALM      30.01S
STUART         CLOUDY    77  75  94 CALM      30.03R THUNDER

STATION/POSITION SKY/WX   TEMP    WIND        PRES    WAVE   SWELL
                          AIR SEA DIR/SP/G            HT/PER HT/PER
                          (F)     (DEG/KT/KT) (MB)    (FT/S) (FT/S)
28.5N   80.2W              83 84   90/  2/  4 1016.5F
TRIDENT PIER               81 86  110/  2/  3 1016.8F
28.4N   80.5W                 85                N/A     2/11   2/11
27.5N   80.2W                 85                N/A     3/11   2/11

$$
FLZ050-056-061-142-242-148-248-149-249-151-251-155-255-
160-260-250600-
WEST CENTRAL FLORIDA

CITY           SKY/WX    TMP DP  RH WIND       PRES   REMARKS
CRYSTAL RIVER  FAIR      77  73  88 CALM      30.01S
INVERNESS      FAIR      73  73 100 CALM      30.02S FOG
BROOKSVILLE    CLEAR     73  72  96 SE5       30.02F
CLEARWATER AIR FAIR      77  72  83 SE3       30.01S
ST PETE CLEARW CLEAR     78  74  87 CALM      30.01S
TAMPA INTL     PTCLDY    78  72  81 SE5       30.02S
TAMPA EXEC     CLEAR     73  72  94 CALM      30.02S FOG
PLANT CITY     CLEAR     75  73  94 CALM      30.04S
MACDILL AFB    CLEAR     76  76  99 E7        30.01S
PETER O KNIGHT CLEAR     79  73  83 E3        30.01F
ST PETERSBURG  CLEAR     80  73  79 S9        29.99S
SARASOTA       CLEAR     77  71  82 SE6       30.00S
VENICE         FAIR      77  73  88 E7        30.01S

STATION/POSITION SKY/WX   TEMP    WIND        PRES    WAVE   SWELL
                          AIR SEA DIR/SP/G            HT/PER HT/PER
                          (F)     (DEG/KT/KT) (MB)    (FT/S) (FT/S)
27.3N   84.2W                 86                N/A     1
CLEARWATER BEACH           81 87  120/  6/ 12 1016.4F
MIDDLE TAMPA BAY                  160/  6/  7 1016.5F
VENICE                     79 86  110/  6/  8 1015.8F

$$
FLZ066-069-070-075>078-162-262-165-265-250600-
SOUTHWEST FLORIDA AND KEYS

CITY           SKY/WX    TMP DP  RH WIND       PRES   REMARKS
PUNTA GORDA    CLEAR     72  70  93 E3        30.04S
FT MYERS       PTCLDY    74  71  91 E3        30.01S
SOUTHWEST INTL MOCLDY    74  70  87 CALM      30.02S
NAPLES         CLEAR     76  73  91 E6        30.01R
MARATHON       MOCLDY    83  77  82 E7        29.99F
KEY WEST NAS   PTCLDY    80  76  87 N3        30.00F
KEY WEST INTL  CLEAR     80  77  90 NE3       30.00F

STATION/POSITION SKY/WX   TEMP    WIND        PRES    WAVE   SWELL
                          AIR SEA DIR/SP/G            HT/PER HT/PER
                          (F)     (DEG/KT/KT) (MB)    (FT/S) (FT/S)
NAPLES                        89              1015.9F
26.0N   85.6W              83 86  100/  6/  8 1016.6F   1
DRY TORTUGAS               84     140/  7/  8 1015.8F
SAND KEY                   83                 1016.3F
LONG KEY                   84 88  120/ 11/ 12 1016.4F
MOLASSES REEF              84 86  150/  5/  6 1016.5

$$
FLZ067-068-071>074-168-172>174-250600-
SOUTHEAST FLORIDA

CITY           SKY/WX    TMP DP  RH WIND       PRES   REMARKS
W PALM BEACH   MOCLDY    76  74  93 W6        30.02R
FT LAUDER-EXEC CLOUDY    77  72  84 CALM      30.00F
FT LAUDERDALE  MOCLDY    79  75  87 CALM      30.00S
POMPANO BEACH  CLOUDY    78  74  87 S5        30.00F
PEMBROKE PINES PTCLDY    76  72  87 CALM      30.02S
OPA LOCKA      PTCLDY    75  70  84 CALM      30.01F
MIAMI          MOCLDY    76  71  85 NE5       30.00S
WEST KENDALL   PTCLDY    75  73  93 SE7       29.99F
HOMESTEAD      PTCLDY    76  73  89 SE7       29.99F

STATION/POSITION SKY/WX   TEMP    WIND        PRES    WAVE   SWELL
                          AIR SEA DIR/SP/G            HT/PER HT/PER
                          (F)     (DEG/KT/KT) (MB)    (FT/S) (FT/S)
PORT EVERGLADES            80     200/  3/  6 1015.9F
VIRGINIA KEY               78 91  220/ 11/ 15 1016.9R
LAKE WORTH                        260/  4/  4   N/A
FOWEY ROCKS                78 85  250/ 11/ 12 1017.7R
SETTLEMENT POINT           83     120/  3/  4 1016.9R

$$





USA.gov is the U.S. government's official web portal to all federal, state and local government web resources and services.